,,,PA_Meas_PMT16A,,PR_Meas_QMR101_102,,RH_Meas_QMH101,,SR_Meas_QMS101,,TA_Meas_QMH101,,GenWind,,GenWind,
date,time,status,PA,status,PR,status,RH,status,SR,status,TA,status,DirAvg,status,SpdAvg,
2009-03-14, 00:00:05,VALID,1011.99,VALID,0,VALID,85.3627,VALID,0.105969,VALID,23.5169,VALID,79,VALID,1.02383,
2009-03-14, 00:01:05,VALID,1012.01,VALID,0,VALID,85.3398,VALID,0.105969,VALID,23.5169,VALID,86,VALID,0.984766,
2009-03-14, 00:02:05,VALID,1012.01,VALID,0,VALID,85.3169,VALID,0.105969,VALID,23.4974,VALID,81,VALID,1.61016,
2009-03-14, 00:03:05,VALID,1012.03,VALID,0,VALID,85.3551,VALID,0,VALID,23.5169,VALID,76,VALID,0.514063,
2009-03-14, 00:04:05,VALID,1012.05,VALID,0,VALID,85.3856,VALID,0.105969,VALID,23.4974,VALID,72,VALID,0.342969,
2009-03-14, 00:05:05,VALID,1012.13,VALID,0,VALID,85.4161,VALID,0,VALID,23.4974,VALID,103,VALID,0.0914062,
2009-03-14, 00:06:05,VALID,1012.15,VALID,0,VALID,85.4313,VALID,0,VALID,23.4974,VALID,103,VALID,0,
2009-03-14, 00:07:05,VALID,1012.23,VALID,0,VALID,85.5228,VALID,0.105969,VALID,23.5363,VALID,186,VALID,0.524609,
2009-03-14, 00:08:05,VALID,1012.27,VALID,0,VALID,85.5381,VALID,0.105969,VALID,23.5346,VALID,251,VALID,0.829297,
2009-03-14, 00:09:05,VALID,1012.33,VALID,0,VALID,85.4847,VALID,0.105969,VALID,23.5558,VALID,222,VALID,1.63906,
2009-03-14, 00:10:05,VALID,1012.37,VALID,0,VALID,85.4389,VALID,0.105969,VALID,23.5948,VALID,231,VALID,1.5168,
2009-03-14, 00:11:05,VALID,1012.4,VALID,0,VALID,85.4313,VALID,0,VALID,23.5948,VALID,223,VALID,1.48477,
2009-03-14, 00:12:05,VALID,1012.43,VALID,0,VALID,85.5304,VALID,0.105969,VALID,23.6338,VALID,213,VALID,1.15313,
2009-03-14, 00:13:05,VALID,1012.47,VALID,0,VALID,85.6067,VALID,0,VALID,23.6763,VALID,205,VALID,1.03477,
2009-03-14, 00:14:05,VALID,1012.47,VALID,0,VALID,85.6067,VALID,0,VALID,23.655,VALID,194,VALID,1.31484,
2009-03-14, 00:15:05,VALID,1012.45,VALID,0,VALID,85.5533,VALID,0,VALID,23.6745,VALID,213,VALID,1.21641,
2009-03-14, 00:16:05,VALID,1012.31,VALID,0,VALID,85.4237,VALID,0,VALID,23.7135,VALID,142,VALID,1.60391,
2009-03-14, 00:17:05,VALID,1012.29,VALID,0,VALID,85.2483,VALID,0,VALID,23.7312,VALID,142,VALID,0.739062,
2009-03-14, 00:18:05,VALID,1012.27,VALID,0,VALID,85.0882,VALID,0,VALID,23.7914,VALID,143,VALID,0.773438,
2009-03-14, 00:19:05,VALID,1012.25,VALID,0,VALID,85.0195,VALID,0,VALID,23.7914,VALID,139,VALID,1.28437,
2009-03-14, 00:20:05,VALID,1012.17,VALID,0.5,VALID,85.1644,VALID,0,VALID,23.772,VALID,141,VALID,1.67969,
2009-03-14, 00:21:05,VALID,1012.15,VALID,0.5,VALID,85.4237,VALID,0,VALID,23.7135,VALID,108,VALID,0.898047,
2009-03-14, 00:22:05,VALID,1012.12,VALID,0,VALID,85.7287,VALID,0,VALID,23.7135,VALID,123,VALID,1.93047,
2009-03-14, 00:23:05,VALID,1012.1,VALID,0,VALID,85.9422,VALID,0,VALID,23.7135,VALID,125,VALID,1.1043,
2009-03-14, 00:24:05,VALID,1012.03,VALID,0,VALID,86.0871,VALID,0,VALID,23.7135,VALID,126,VALID,0.653125,
2009-03-14, 00:25:05,VALID,1012.02,VALID,0.5,VALID,86.2168,VALID,0,VALID,23.694,VALID,96,VALID,0.496094,
2009-03-14, 00:26:05,VALID,1012.01,VALID,0,VALID,86.354,VALID,0,VALID,23.6745,VALID,356,VALID,1.14297,
2009-03-14, 00:27:05,VALID,1012.04,VALID,0,VALID,86.4379,VALID,0,VALID,23.6745,VALID,87,VALID,0.894531,
2009-03-14, 00:28:05,VALID,1012.03,VALID,0,VALID,86.5294,VALID,0,VALID,23.6727,VALID,126,VALID,0.703125,
2009-03-14, 00:29:05,VALID,1012.04,VALID,0,VALID,86.5752,VALID,0,VALID,23.6745,VALID,96,VALID,1.49922,
2009-03-14, 00:30:05,VALID,1012.06,VALID,0,VALID,86.5981,VALID,0,VALID,23.694,VALID,102,VALID,1.92852,
2009-03-14, 00:31:05,VALID,1012.05,VALID,0,VALID,86.6362,VALID,0,VALID,23.694,VALID,108,VALID,0.972266,
2009-03-14, 00:32:05,VALID,1012.07,VALID,0,VALID,86.6896,VALID,0,VALID,23.6745,VALID,104,VALID,1.50586,
2009-03-14, 00:33:05,VALID,1012.04,VALID,0,VALID,86.7201,VALID,0,VALID,23.655,VALID,67,VALID,1.5707,
2009-03-14, 00:34:05,VALID,1012.04,VALID,0,VALID,86.7582,VALID,0,VALID,23.6356,VALID,85,VALID,1.49648,
2009-03-14, 00:35:05,VALID,1011.98,VALID,0,VALID,86.7582,VALID,0,VALID,23.6161,VALID,76,VALID,1.91445,
2009-03-14, 00:36:05,VALID,1011.99,VALID,0,VALID,86.7582,VALID,0,VALID,23.5966,VALID,83,VALID,2.19961,
2009-03-14, 00:37:05,VALID,1011.95,VALID,0,VALID,86.7658,VALID,0,VALID,23.5966,VALID,83,VALID,1.64648,
2009-03-14, 00:38:05,VALID,1011.95,VALID,0,VALID,86.7734,VALID,0,VALID,23.5966,VALID,94,VALID,1.78437,
2009-03-14, 00:39:05,VALID,1011.93,VALID,0,VALID,86.8116,VALID,0,VALID,23.5966,VALID,86,VALID,1.77695,
2009-03-14, 00:40:05,VALID,1011.86,VALID,0,VALID,86.8268,VALID,0,VALID,23.6161,VALID,96,VALID,1.57813,
2009-03-14, 00:41:05,VALID,1011.87,VALID,0,VALID,86.7887,VALID,0,VALID,23.6161,VALID,95,VALID,1.92891,
2009-03-14, 00:42:05,VALID,1011.81,VALID,0,VALID,86.7429,VALID,0,VALID,23.6161,VALID,99,VALID,1.71094,
2009-03-14, 00:43:05,VALID,1011.8,VALID,0,VALID,86.7277,VALID,0,VALID,23.6161,VALID,107,VALID,1.28906,
2009-03-14, 00:44:05,VALID,1011.75,VALID,0,VALID,86.7353,VALID,0,VALID,23.6161,VALID,104,VALID,2.49961,
2009-03-14, 00:45:04,VALID,1011.74,VALID,0,VALID,86.6362,VALID,0,VALID,23.6356,VALID,91,VALID,2.5082,
2009-03-14, 00:46:04,VALID,1011.72,VALID,0,VALID,86.5447,VALID,0,VALID,23.6745,VALID,91,VALID,2.49219,
2009-03-14, 00:47:04,VALID,1011.72,VALID,0,VALID,86.3998,VALID,0,VALID,23.694,VALID,79,VALID,1.67266,
2009-03-14, 00:48:04,VALID,1011.73,VALID,0,VALID,86.2854,VALID,0,VALID,23.7153,VALID,88,VALID,1.00586,
2009-03-14, 00:49:04,VALID,1011.69,VALID,0,VALID,86.2473,VALID,0,VALID,23.694,VALID,101,VALID,0.930078,
2009-03-14, 00:50:04,VALID,1011.67,VALID,0,VALID,86.2473,VALID,0,VALID,23.6338,VALID,92,VALID,1.70195,
2009-03-14, 00:51:04,VALID,1011.61,VALID,0,VALID,86.2701,VALID,0,VALID,23.655,VALID,97,VALID,0.954297,
2009-03-14, 00:52:04,VALID,1011.6,VALID,0,VALID,86.3388,VALID,0,VALID,23.6356,VALID,83,VALID,0.858984,
2009-03-14, 00:53:04,VALID,1011.59,VALID,0,VALID,86.3845,VALID,0,VALID,23.6161,VALID,94,VALID,1.22109,
2009-03-14, 00:54:04,VALID,1011.6,VALID,0,VALID,86.4455,VALID,0,VALID,23.5966,VALID,97,VALID,1.01484,
2009-03-14, 00:55:04,VALID,1011.59,VALID,0,VALID,86.4989,VALID,0,VALID,23.6179,VALID,114,VALID,1.575,
2009-03-14, 00:56:04,VALID,1011.6,VALID,0,VALID,86.5523,VALID,0,VALID,23.5966,VALID,82,VALID,1.08945,
2009-03-14, 00:57:04,VALID,1011.59,VALID,0,VALID,86.6057,VALID,0,VALID,23.5771,VALID,84,VALID,0.541797,
2009-03-14, 00:58:04,VALID,1011.6,VALID,0,VALID,86.6667,VALID,0,VALID,23.5576,VALID,76,VALID,0.547266,
2009-03-14, 00:59:04,VALID,1011.57,VALID,0,VALID,86.7353,VALID,0,VALID,23.5576,VALID,51,VALID,1.33359,
2009-03-14, 01:00:04,VALID,1011.59,VALID,0,VALID,86.7506,VALID,0,VALID,23.5381,VALID,74,VALID,1.09922,
2009-03-14, 01:01:04,VALID,1011.58,VALID,0,VALID,86.7887,VALID,0,VALID,23.5186,VALID,63,VALID,0.747656,
2009-03-14, 01:02:04,VALID,1011.6,VALID,0,VALID,86.8345,VALID,0,VALID,23.4974,VALID,66,VALID,1.1625,
2009-03-14, 01:03:04,VALID,1011.6,VALID,0,VALID,86.8497,VALID,0,VALID,23.4992,VALID,76,VALID,0.694922,
2009-03-14, 01:04:04,VALID,1011.61,VALID,0,VALID,86.8955,VALID,0,VALID,23.4992,VALID,58,VALID,0.887891,
2009-03-14, 01:05:04,VALID,1011.59,VALID,0,VALID,86.9412,VALID,0,VALID,23.4992,VALID,67,VALID,0.638281,
2009-03-14, 01:06:04,VALID,1011.62,VALID,0,VALID,86.9946,VALID,0,VALID,23.4992,VALID,69,VALID,0.727734,
2009-03-14, 01:07:04,VALID,1011.59,VALID,0,VALID,87.0251,VALID,0,VALID,23.5009,VALID,73,VALID,1.10703,
2009-03-14, 01:08:04,VALID,1011.59,VALID,0,VALID,87.0709,VALID,0,VALID,23.4992,VALID,103,VALID,1.03281,
2009-03-14, 01:09:04,VALID,1011.57,VALID,0,VALID,87.0861,VALID,0,VALID,23.4992,VALID,90,VALID,0.991406,
2009-03-14, 01:10:04,VALID,1011.55,VALID,0,VALID,87.1319,VALID,0,VALID,23.4992,VALID,96,VALID,1.04062,
2009-03-14, 01:11:04,VALID,1011.54,VALID,0,VALID,87.1776,VALID,0,VALID,23.4992,VALID,80,VALID,0.704687,
2009-03-14, 01:12:04,VALID,1011.51,VALID,0,VALID,87.1929,VALID,0,VALID,23.4584,VALID,90,VALID,1.03555,
2009-03-14, 01:13:04,VALID,1011.5,VALID,0,VALID,87.2081,VALID,0,VALID,23.4779,VALID,62,VALID,0.711719,
2009-03-14, 01:14:04,VALID,1011.49,VALID,0,VALID,87.231,VALID,0.105969,VALID,23.4779,VALID,70,VALID,0.76875,
2009-03-14, 01:15:04,VALID,1011.5,VALID,0,VALID,87.2615,VALID,0,VALID,23.4779,VALID,72,VALID,0.589844,
2009-03-14, 01:16:04,VALID,1011.49,VALID,0,VALID,87.2767,VALID,0.105969,VALID,23.4584,VALID,47,VALID,0.739062,
2009-03-14, 01:17:04,VALID,1011.49,VALID,0,VALID,87.3073,VALID,0.105969,VALID,23.4389,VALID,43,VALID,0.402734,
2009-03-14, 01:18:04,VALID,1011.48,VALID,0,VALID,87.2844,VALID,0,VALID,23.4389,VALID,21,VALID,0.528906,
2009-03-14, 01:19:04,VALID,1011.48,VALID,0,VALID,87.3378,VALID,0.105969,VALID,23.4389,VALID,12,VALID,0.547656,
2009-03-14, 01:20:04,VALID,1011.49,VALID,0,VALID,87.353,VALID,0,VALID,23.4389,VALID,17,VALID,0.276563,
2009-03-14, 01:21:04,VALID,1011.48,VALID,0,VALID,87.3454,VALID,0,VALID,23.4194,VALID,5,VALID,0.236719,
2009-03-14, 01:22:04,VALID,1011.47,VALID,0,VALID,87.3683,VALID,0,VALID,23.4194,VALID,15,VALID,0.303125,
2009-03-14, 01:23:04,VALID,1011.48,VALID,0,VALID,87.3835,VALID,0.105969,VALID,23.4194,VALID,54,VALID,0.55,
2009-03-14, 01:24:04,VALID,1011.47,VALID,0,VALID,87.3988,VALID,0.105969,VALID,23.4,VALID,56,VALID,0.289453,
2009-03-14, 01:25:04,VALID,1011.46,VALID,0,VALID,87.4293,VALID,0,VALID,23.4,VALID,57,VALID,0,
2009-03-14, 01:26:04,VALID,1011.45,VALID,0,VALID,87.4445,VALID,0.105969,VALID,23.3805,VALID,56,VALID,0.326953,
2009-03-14, 01:27:04,VALID,1011.41,VALID,0,VALID,87.475,VALID,0.105969,VALID,23.3805,VALID,56,VALID,0,
2009-03-14, 01:28:04,VALID,1011.4,VALID,0,VALID,87.4903,VALID,0,VALID,23.3823,VALID,56,VALID,0.0046875,
2009-03-14, 01:29:04,VALID,1011.39,VALID,0,VALID,87.4826,VALID,0,VALID,23.3628,VALID,55,VALID,0.265234,
2009-03-14, 01:30:04,VALID,1011.34,VALID,0,VALID,87.4979,VALID,0,VALID,23.3415,VALID,55,VALID,0.213281,
2009-03-14, 01:31:04,VALID,1011.28,VALID,0,VALID,87.5131,VALID,0,VALID,23.322,VALID,55,VALID,0,
2009-03-14, 01:32:04,VALID,1011.24,VALID,0,VALID,87.5513,VALID,0,VALID,23.3433,VALID,75,VALID,0.660937,
2009-03-14, 01:33:04,VALID,1011.25,VALID,0,VALID,87.5436,VALID,0,VALID,23.3628,VALID,77,VALID,0.386719,
2009-03-14, 01:34:04,VALID,1011.21,VALID,0,VALID,87.5665,VALID,0,VALID,23.3433,VALID,74,VALID,0.453516,
2009-03-14, 01:35:04,VALID,1011.21,VALID,0,VALID,87.5894,VALID,0,VALID,23.3433,VALID,74,VALID,0.317969,
2009-03-14, 01:36:04,VALID,1011.21,VALID,0,VALID,87.6047,VALID,0,VALID,23.3433,VALID,49,VALID,0.395312,
2009-03-14, 01:37:04,VALID,1011.2,VALID,0,VALID,87.6352,VALID,0,VALID,23.3433,VALID,57,VALID,0.466797,
2009-03-14, 01:38:04,VALID,1011.16,VALID,0,VALID,87.6428,VALID,0,VALID,23.3433,VALID,73,VALID,0.132422,
2009-03-14, 01:39:04,VALID,1011.17,VALID,0,VALID,87.6733,VALID,0,VALID,23.3433,VALID,73,VALID,0,
2009-03-14, 01:40:04,VALID,1011.16,VALID,0,VALID,87.6809,VALID,0,VALID,23.3433,VALID,87,VALID,0.117188,
2009-03-14, 01:41:04,VALID,1011.16,VALID,0,VALID,87.6733,VALID,0,VALID,23.3628,VALID,22,VALID,0.294922,
2009-03-14, 01:42:04,VALID,1011.16,VALID,0,VALID,87.6809,VALID,0,VALID,23.3433,VALID,22,VALID,0.271484,
2009-03-14, 01:43:04,VALID,1011.14,VALID,0,VALID,87.7038,VALID,0.105969,VALID,23.3415,VALID,45,VALID,0.642578,
2009-03-14, 01:44:04,VALID,1011.16,VALID,0,VALID,87.7038,VALID,0.105969,VALID,23.322,VALID,63,VALID,0.605859,
2009-03-14, 01:45:04,VALID,1011.15,VALID,0,VALID,87.7038,VALID,0.105969,VALID,23.322,VALID,52,VALID,0.107813,
2009-03-14, 01:46:04,VALID,1011.14,VALID,0,VALID,87.7114,VALID,0.105969,VALID,23.3026,VALID,94,VALID,0.894141,
2009-03-14, 01:47:04,VALID,1011.12,VALID,0,VALID,87.719,VALID,0.105969,VALID,23.3026,VALID,112,VALID,1.04609,
2009-03-14, 01:48:04,VALID,1011.06,VALID,0,VALID,87.7267,VALID,0.105969,VALID,23.3008,VALID,98,VALID,0.574219,
2009-03-14, 01:49:04,VALID,1011.07,VALID,0,VALID,87.7267,VALID,0.105969,VALID,23.3008,VALID,115,VALID,1.11172,
2009-03-14, 01:50:04,VALID,1011.04,VALID,0,VALID,87.719,VALID,0.105969,VALID,23.322,VALID,88,VALID,1.21875,
2009-03-14, 01:51:04,VALID,1011.03,VALID,0,VALID,87.7267,VALID,0.105969,VALID,23.3415,VALID,108,VALID,0.783984,
2009-03-14, 01:52:04,VALID,1011.01,VALID,0,VALID,87.7267,VALID,0.105969,VALID,23.3008,VALID,123,VALID,0.806641,
2009-03-14, 01:53:04,VALID,1010.97,VALID,0,VALID,87.7419,VALID,0.105969,VALID,23.3415,VALID,112,VALID,0.959766,
2009-03-14, 01:54:04,VALID,1010.96,VALID,0,VALID,87.7267,VALID,0.105969,VALID,23.322,VALID,118,VALID,1.31523,
2009-03-14, 01:55:04,VALID,1010.97,VALID,0,VALID,87.7343,VALID,0.105969,VALID,23.322,VALID,106,VALID,1.00391,
2009-03-14, 01:56:04,VALID,1010.98,VALID,0,VALID,87.7343,VALID,0.105969,VALID,23.3008,VALID,96,VALID,0.599219,
2009-03-14, 01:57:04,VALID,1010.97,VALID,0,VALID,87.7343,VALID,0.105969,VALID,23.3026,VALID,65,VALID,0.583984,
2009-03-14, 01:58:04,VALID,1011.01,VALID,0,VALID,87.7267,VALID,0,VALID,23.2831,VALID,58,VALID,0.734766,
2009-03-14, 01:59:04,VALID,1011.01,VALID,0,VALID,87.7343,VALID,0,VALID,23.3043,VALID,29,VALID,0.566406,
2009-03-14, 02:00:04,VALID,1010.96,VALID,0,VALID,87.7343,VALID,0,VALID,23.2848,VALID,72,VALID,0.750391,
2009-03-14, 02:01:04,VALID,1010.98,VALID,0,VALID,87.7267,VALID,0,VALID,23.2636,VALID,99,VALID,0.989844,
2009-03-14, 02:02:04,VALID,1010.98,VALID,0,VALID,87.719,VALID,0.105969,VALID,23.2441,VALID,80,VALID,0.0949219,
2009-03-14, 02:03:04,VALID,1010.94,VALID,0,VALID,87.7267,VALID,0,VALID,23.2654,VALID,93,VALID,0.226172,
2009-03-14, 02:04:04,VALID,1010.9,VALID,0,VALID,87.7267,VALID,0,VALID,23.2441,VALID,93,VALID,0.823438,
2009-03-14, 02:05:04,VALID,1010.9,VALID,0,VALID,87.7267,VALID,0,VALID,23.2459,VALID,82,VALID,0.939844,
2009-03-14, 02:06:04,VALID,1010.89,VALID,0,VALID,87.7267,VALID,0,VALID,23.2654,VALID,60,VALID,0.705469,
2009-03-14, 02:07:04,VALID,1010.88,VALID,0,VALID,87.7495,VALID,0,VALID,23.2459,VALID,74,VALID,0.617188,
2009-03-14, 02:08:04,VALID,1010.87,VALID,0,VALID,87.7419,VALID,0,VALID,23.2654,VALID,74,VALID,0.570313,
2009-03-14, 02:09:04,VALID,1010.88,VALID,0,VALID,87.7343,VALID,0,VALID,23.2246,VALID,70,VALID,0.496094,
2009-03-14, 02:10:04,VALID,1010.88,VALID,0,VALID,87.7495,VALID,0.105969,VALID,23.2264,VALID,82,VALID,0.688281,
2009-03-14, 02:11:04,VALID,1010.87,VALID,0,VALID,87.7572,VALID,0,VALID,23.1857,VALID,75,VALID,0.813281,
2009-03-14, 02:12:04,VALID,1010.87,VALID,0,VALID,87.7572,VALID,0.105969,VALID,23.2264,VALID,67,VALID,0.0121094,
2009-03-14, 02:13:04,VALID,1010.84,VALID,0,VALID,87.78,VALID,0.105969,VALID,23.2051,VALID,112,VALID,0.417969,
2009-03-14, 02:14:04,VALID,1010.82,VALID,0,VALID,87.7648,VALID,0,VALID,23.2264,VALID,92,VALID,1.00586,
2009-03-14, 02:15:04,VALID,1010.8,VALID,0,VALID,87.7648,VALID,0.105969,VALID,23.2246,VALID,82,VALID,0.617578,
2009-03-14, 02:16:04,VALID,1010.78,VALID,0,VALID,87.7724,VALID,0,VALID,23.2264,VALID,80,VALID,1.17891,
2009-03-14, 02:17:04,VALID,1010.78,VALID,0,VALID,87.78,VALID,0.105969,VALID,23.2051,VALID,85,VALID,0.853906,
2009-03-14, 02:18:04,VALID,1010.75,VALID,0,VALID,87.8106,VALID,0,VALID,23.2069,VALID,80,VALID,0.380078,
2009-03-14, 02:19:04,VALID,1010.75,VALID,0,VALID,87.8106,VALID,0,VALID,23.1857,VALID,80,VALID,0.405469,
2009-03-14, 02:20:04,VALID,1010.74,VALID,0,VALID,87.7953,VALID,0,VALID,23.1857,VALID,92,VALID,0.908594,
2009-03-14, 02:21:04,VALID,1010.73,VALID,0,VALID,87.8182,VALID,0,VALID,23.1857,VALID,108,VALID,0.586328,
2009-03-14, 02:22:04,VALID,1010.72,VALID,0,VALID,87.8258,VALID,0,VALID,23.2069,VALID,74,VALID,0.431641,
2009-03-14, 02:23:04,VALID,1010.69,VALID,0,VALID,87.8106,VALID,0,VALID,23.1857,VALID,97,VALID,0.792188,
2009-03-14, 02:24:04,VALID,1010.68,VALID,0,VALID,87.8487,VALID,0,VALID,23.2051,VALID,91,VALID,0.663672,
2009-03-14, 02:25:04,VALID,1010.65,VALID,0,VALID,87.8563,VALID,0,VALID,23.2051,VALID,88,VALID,0.955078,
2009-03-14, 02:26:04,VALID,1010.62,VALID,0,VALID,87.8639,VALID,0,VALID,23.2459,VALID,95,VALID,1.025,
2009-03-14, 02:27:04,VALID,1010.58,VALID,0,VALID,87.8411,VALID,0,VALID,23.2051,VALID,89,VALID,1.43164,
2009-03-14, 02:28:04,VALID,1010.55,VALID,0,VALID,87.8411,VALID,0.105969,VALID,23.2051,VALID,81,VALID,1.38594,
2009-03-14, 02:29:04,VALID,1010.58,VALID,0,VALID,87.8716,VALID,0,VALID,23.1857,VALID,71,VALID,1.09727,
2009-03-14, 02:30:04,VALID,1010.59,VALID,0,VALID,87.8716,VALID,0,VALID,23.2264,VALID,61,VALID,1.41172,
2009-03-14, 02:31:04,VALID,1010.55,VALID,0,VALID,87.8868,VALID,0,VALID,23.2264,VALID,129,VALID,1.26953,
2009-03-14, 02:32:04,VALID,1010.53,VALID,0,VALID,87.9097,VALID,0,VALID,23.1857,VALID,99,VALID,0.817187,
2009-03-14, 02:33:04,VALID,1010.51,VALID,0,VALID,87.9173,VALID,0,VALID,23.2264,VALID,94,VALID,0.985156,
2009-03-14, 02:34:04,VALID,1010.47,VALID,0,VALID,87.9097,VALID,0,VALID,23.2051,VALID,79,VALID,1.07773,
2009-03-14, 02:35:04,VALID,1010.46,VALID,0,VALID,87.9097,VALID,0,VALID,23.1662,VALID,67,VALID,0.621875,
2009-03-14, 02:36:04,VALID,1010.42,VALID,0,VALID,87.9326,VALID,0,VALID,23.1662,VALID,73,VALID,1.5,
2009-03-14, 02:37:04,VALID,1010.4,VALID,0,VALID,87.9554,VALID,0,VALID,23.1679,VALID,73,VALID,0.896094,
2009-03-14, 02:38:04,VALID,1010.43,VALID,0,VALID,87.9554,VALID,0,VALID,23.1857,VALID,105,VALID,0.888672,
2009-03-14, 02:39:04,VALID,1010.44,VALID,0,VALID,87.9783,VALID,0,VALID,23.2069,VALID,72,VALID,0.278125,
2009-03-14, 02:40:04,VALID,1010.45,VALID,0,VALID,87.9783,VALID,0,VALID,23.1662,VALID,67,VALID,0.7125,
2009-03-14, 02:41:04,VALID,1010.45,VALID,0,VALID,87.9936,VALID,0,VALID,23.1662,VALID,55,VALID,1.26055,
2009-03-14, 02:42:04,VALID,1010.46,VALID,0,VALID,87.9936,VALID,0,VALID,23.1467,VALID,85,VALID,1.17422,
2009-03-14, 02:43:04,VALID,1010.46,VALID,0,VALID,88.0241,VALID,0,VALID,23.1662,VALID,90,VALID,0.855859,
2009-03-14, 02:44:04,VALID,1010.48,VALID,0,VALID,88.0317,VALID,0,VALID,23.1662,VALID,109,VALID,1.19766,
2009-03-14, 02:45:04,VALID,1010.5,VALID,0.5,VALID,88.0241,VALID,0,VALID,23.1679,VALID,103,VALID,0.413281,
2009-03-14, 02:46:04,VALID,1010.54,VALID,0,VALID,88.047,VALID,0,VALID,23.1679,VALID,106,VALID,0.164844,
2009-03-14, 02:47:04,VALID,1010.55,VALID,0,VALID,88.0393,VALID,0,VALID,23.1662,VALID,39,VALID,0.232422,
2009-03-14, 02:48:04,VALID,1010.56,VALID,0,VALID,88.0546,VALID,0,VALID,23.2069,VALID,81,VALID,0.160156,
2009-03-14, 02:49:04,VALID,1010.57,VALID,0,VALID,88.0622,VALID,0,VALID,23.2069,VALID,78,VALID,0.65625,
2009-03-14, 02:50:04,VALID,1010.56,VALID,0,VALID,88.0622,VALID,0,VALID,23.1874,VALID,56,VALID,0.217187,
2009-03-14, 02:51:04,VALID,1010.59,VALID,0,VALID,88.0851,VALID,0,VALID,23.1662,VALID,56,VALID,0.0742188,
2009-03-14, 02:52:04,VALID,1010.55,VALID,0,VALID,88.0851,VALID,0,VALID,23.1662,VALID,56,VALID,0,
2009-03-14, 02:53:04,VALID,1010.57,VALID,0,VALID,88.1003,VALID,0,VALID,23.1857,VALID,56,VALID,0.334766,
2009-03-14, 02:54:04,VALID,1010.55,VALID,0,VALID,88.0851,VALID,0,VALID,23.1874,VALID,63,VALID,0.468359,
2009-03-14, 02:55:04,VALID,1010.54,VALID,0,VALID,88.1003,VALID,0,VALID,23.1874,VALID,63,VALID,0,
2009-03-14, 02:56:04,VALID,1010.51,VALID,0,VALID,88.1232,VALID,0,VALID,23.1857,VALID,26,VALID,0.722656,
2009-03-14, 02:57:04,VALID,1010.51,VALID,0,VALID,88.1232,VALID,0,VALID,23.1662,VALID,40,VALID,0.367188,
2009-03-14, 02:58:04,VALID,1010.49,VALID,0,VALID,88.1308,VALID,0,VALID,23.1874,VALID,81,VALID,0.692578,
2009-03-14, 02:59:04,VALID,1010.46,VALID,0,VALID,88.1308,VALID,0,VALID,23.1874,VALID,77,VALID,0.851172,
2009-03-14, 03:00:04,VALID,1010.47,VALID,0,VALID,88.1308,VALID,0,VALID,23.2069,VALID,98,VALID,0.987109,
2009-03-14, 03:01:04,VALID,1010.44,VALID,0,VALID,88.1308,VALID,0,VALID,23.1857,VALID,78,VALID,0.980469,
2009-03-14, 03:02:04,VALID,1010.43,VALID,0,VALID,88.1537,VALID,0,VALID,23.1874,VALID,74,VALID,1.07617,
2009-03-14, 03:03:04,VALID,1010.43,VALID,0,VALID,88.1537,VALID,0,VALID,23.1857,VALID,69,VALID,0.811719,
2009-03-14, 03:04:04,VALID,1010.49,VALID,0,VALID,88.1537,VALID,0,VALID,23.1874,VALID,60,VALID,0.452734,
2009-03-14, 03:05:04,VALID,1010.48,VALID,0,VALID,88.1613,VALID,0,VALID,23.1874,VALID,52,VALID,0.301172,
2009-03-14, 03:06:04,VALID,1010.45,VALID,0,VALID,88.1613,VALID,0,VALID,23.1874,VALID,48,VALID,0.514844,
2009-03-14, 03:07:04,VALID,1010.5,VALID,0,VALID,88.169,VALID,0,VALID,23.1679,VALID,87,VALID,0.457422,
2009-03-14, 03:08:04,VALID,1010.5,VALID,0,VALID,88.1766,VALID,0,VALID,23.1679,VALID,85,VALID,0.549219,
2009-03-14, 03:09:04,VALID,1010.51,VALID,0,VALID,88.169,VALID,0,VALID,23.1679,VALID,78,VALID,0.827734,
2009-03-14, 03:10:04,VALID,1010.47,VALID,0,VALID,88.2071,VALID,0,VALID,23.1467,VALID,56,VALID,0.419922,
2009-03-14, 03:11:04,VALID,1010.53,VALID,0,VALID,88.1918,VALID,0,VALID,23.1467,VALID,55,VALID,0.458984,
2009-03-14, 03:12:04,VALID,1010.51,VALID,0,VALID,88.1918,VALID,0.105969,VALID,23.1272,VALID,7,VALID,0.773828,
2009-03-14, 03:13:04,VALID,1010.52,VALID,0,VALID,88.1918,VALID,0,VALID,23.1485,VALID,36,VALID,0.257031,
2009-03-14, 03:14:04,VALID,1010.52,VALID,0,VALID,88.1918,VALID,0,VALID,23.129,VALID,85,VALID,0.184766,
2009-03-14, 03:15:04,VALID,1010.52,VALID,0,VALID,88.2223,VALID,0,VALID,23.129,VALID,73,VALID,0.0515625,
2009-03-14, 03:16:04,VALID,1010.54,VALID,0,VALID,88.1995,VALID,0,VALID,23.1077,VALID,40,VALID,0.458594,
2009-03-14, 03:17:04,VALID,1010.53,VALID,0,VALID,88.2147,VALID,0,VALID,23.0883,VALID,18,VALID,0.363281,
2009-03-14, 03:18:04,VALID,1010.53,VALID,0,VALID,88.23,VALID,0,VALID,23.1095,VALID,21,VALID,0.174219,
2009-03-14, 03:19:04,VALID,1010.56,VALID,0,VALID,88.2147,VALID,0,VALID,23.09,VALID,59,VALID,0.448047,
2009-03-14, 03:20:04,VALID,1010.55,VALID,0,VALID,88.23,VALID,0,VALID,23.09,VALID,46,VALID,0.212109,
2009-03-14, 03:21:04,VALID,1010.54,VALID,0,VALID,88.2223,VALID,0,VALID,23.09,VALID,31,VALID,0.557422,
2009-03-14, 03:22:04,VALID,1010.51,VALID,0,VALID,88.2223,VALID,0,VALID,23.0493,VALID,43,VALID,0.276172,
2009-03-14, 03:23:04,VALID,1010.52,VALID,0,VALID,88.2528,VALID,0,VALID,23.0705,VALID,81,VALID,0.580859,
2009-03-14, 03:24:04,VALID,1010.55,VALID,0,VALID,88.2452,VALID,0,VALID,23.0511,VALID,43,VALID,0.716406,
2009-03-14, 03:25:04,VALID,1010.56,VALID,0,VALID,88.2376,VALID,0,VALID,23.0511,VALID,45,VALID,0.289453,
2009-03-14, 03:26:04,VALID,1010.56,VALID,0,VALID,88.2452,VALID,0,VALID,23.0316,VALID,92,VALID,0.05625,
2009-03-14, 03:27:04,VALID,1010.57,VALID,0,VALID,88.2605,VALID,0,VALID,23.0103,VALID,67,VALID,0.0640625,
2009-03-14, 03:28:04,VALID,1010.58,VALID,0,VALID,88.2528,VALID,0,VALID,22.9926,VALID,17,VALID,0.373437,
2009-03-14, 03:29:04,VALID,1010.58,VALID,0,VALID,88.2376,VALID,0,VALID,22.9714,VALID,359,VALID,0.241797,
2009-03-14, 03:30:04,VALID,1010.6,VALID,0,VALID,88.2528,VALID,0,VALID,22.9926,VALID,2,VALID,0.189844,
2009-03-14, 03:31:04,VALID,1010.58,VALID,0,VALID,88.2681,VALID,0,VALID,22.9731,VALID,51,VALID,0.216797,
2009-03-14, 03:32:04,VALID,1010.58,VALID,0,VALID,88.2528,VALID,0,VALID,22.9536,VALID,51,VALID,0.245312,
2009-03-14, 03:33:04,VALID,1010.55,VALID,0,VALID,88.2681,VALID,0,VALID,22.9536,VALID,43,VALID,0.376172,
2009-03-14, 03:34:04,VALID,1010.54,VALID,0,VALID,88.2605,VALID,0,VALID,22.9324,VALID,57,VALID,0.355469,
2009-03-14, 03:35:04,VALID,1010.55,VALID,0,VALID,88.2528,VALID,0,VALID,22.9536,VALID,59,VALID,0.646094,
2009-03-14, 03:36:04,VALID,1010.53,VALID,0,VALID,88.2605,VALID,0,VALID,22.9324,VALID,35,VALID,0.214062,
2009-03-14, 03:37:04,VALID,1010.53,VALID,0,VALID,88.2528,VALID,0,VALID,22.9342,VALID,30,VALID,0.312891,
2009-03-14, 03:38:04,VALID,1010.5,VALID,0,VALID,88.2605,VALID,0,VALID,22.9147,VALID,41,VALID,0.703516,
2009-03-14, 03:39:04,VALID,1010.49,VALID,0,VALID,88.2528,VALID,0,VALID,22.8952,VALID,56,VALID,0.252734,
2009-03-14, 03:40:04,VALID,1010.49,VALID,0,VALID,88.2452,VALID,0,VALID,22.8952,VALID,56,VALID,0.0792969,
2009-03-14, 03:41:04,VALID,1010.48,VALID,0,VALID,88.2605,VALID,0,VALID,22.8757,VALID,57,VALID,0.311328,
2009-03-14, 03:42:04,VALID,1010.47,VALID,0,VALID,88.2605,VALID,0,VALID,22.835,VALID,57,VALID,0.125,
2009-03-14, 03:43:04,VALID,1010.51,VALID,0,VALID,88.2528,VALID,0,VALID,22.8757,VALID,40,VALID,0.327734,
2009-03-14, 03:44:04,VALID,1010.52,VALID,0,VALID,88.2528,VALID,0,VALID,22.8757,VALID,39,VALID,0,